sat.trackr.live / text

‹ back to catalog

STARLINK-11551 [DTC]

NORAD 62840 · 2025-019M

PAYLOAD ACTIVE UNKNOWN

§ Identity

Operator
Country
US
Launch date
2025-01-27
Launch site
AFETR
Launch vehicle
Mass (kg)
RCS (m²)

Purposes: comms

External: N2YO · Heavens-Above · Gunter

§ Orbital elements

Epoch: 2026-05-25T04:39:13.276224Z

Period
91.67 min
Inclination
43.0012°
Eccentricity
0.0002088
Mean motion
15.70880070 rev/d
Perigee alt
355.0 km
Apogee alt
357.8 km
Semi-major
6,734.5 km
B*
1.4953e-3
RAAN
204.7705°
Arg perigee
305.5643°
Mean anomaly
54.5030°
Rev number
7,591

§ Raw data

STARLINK-11551 [DTC]1 62840U 25019M   26145.19390366  .00196359  00000+0  14953-2 0  99982 62840  43.0012 204.7705 0002088 305.5643  54.5030 15.70880070 75916

JSON: /api/v1/satellites/62840 · /tle

For live sub-satellite position, see the globe view (requires WebGL).

§ Visibility from observer

Set your observer location to see the next 7 days of passes ≥ 10°. The values pass through the URL so the page stays shareable.

No JS? Fill the form by hand. The geolocation button needs JavaScript.